Location: Kawakawa
(35.3830°S, 174.0670°E)
Time: 19:48:30
(UTC+13:00)

A-11 Canister half - Pass Details

Date: 09 December 2019
Orbit: 1525 x 1684 km, 47.3° (Epoch: 23 January)

Event Time Altitude Azimuth Distance (km) Brightness Sun altitude
Rises 01:59:12 0° 236° (SW) 4,720 11.8 -31.0°
Reaches altitude 10° 02:02:13 10° 235° (SW) 3,748 11.2 -30.9°
Maximum altitude 02:11:47 88° 146° (SE) 1,594 8.9 -30.4°
Drops below altitude 10° 02:21:37 10° 54° (NE) 3,850 10.9 -29.8°
Sets 02:24:46 0° 54° (NE) 4,852 11.5 -29.6°
